SES-20

Last updated on Sat Oct 25 2025 00:02:52 GMT+0000 (Coordinated Universal Time)

1 53960U 22123A 25296.88494554 -.00000090 00000+0 00000+0 0 9992 2 53960 0.0429 79.2737 0001580 33.1003 135.6922 1.00272645 11163
UTC large
Height (km)
Speed (km/s)
/
Latitude / Longitude
Inclination (degrees)
Orbital Period (minutes)
Azimuth
Elevation
Range (km)
Doppler Factor

Next 0 passes for location: London (51.5072 / 0.1276)

Sorry there are no passes over London.